Temp
93 90 82 82 83 81 83 82 82 82 82 82 83 83 83 83 83 83 84 84 84 84 85 85 85 85 85 84 84 84 84 83 84 83 83 83 83 83 83 84 85 89 83
95 93 81 82 83 83 83 83 83 83 82 82 83 83 83 83 83 84 84 84 84 85 85 84 85 84 84 84 84 84 84 84 84 84 83 84 83 83 83 85 85 86 83
96 94 90 82 83 83 83 83 83 83 83 83 83 83 83 83 84 84 84 85 85 85 85 85 85 84 84 84 84 84 84 84 84 84 85 94 90 83 84 83 83 83 82
99 96 93 82 82 83 82 83 83 83 83 83 83 83 83 84 84 84 85 85 85 85 85 85 85 85 84 84 84 84 84 84 84 84 91 96 93 83 83 83 83 82 82
99 100 90 83 83 83 83 83 83 83 83 83 83 84 84 84 84 85 85 85 85 85 85 85 85 85 84 84 84 83 83 84 84 87 96 94 92 84 83 83 83 83 83
98 100 85 83 83 83 83 83 83 83 83 83 84 84 84 84 85 84 84 84 85 85 85 85 85 84 84 84 84 83 83 83 83 96 94 85 91 83 83 83 83 82 82
98 96 91 83 83 83 83 83 83 83 83 84 84 84 84 84 84 84 84 84 84 85 85 85 85 84 84 84 83 83 83 84 89 97 94 86 87 83 83 83 83 82 82
101 97 92 84 83 83 83 83 83 83 84 84 84 84 84 84 84 84 84 84 84 84 85 84 84 84 84 84 83 83 83 83 92 97 96 91 82 83 83 82 82 82 82
103 98 93 91 87 84 83 84 84 84 84 84 84 84 84 84 84 84 84 84 84 84 83 84 84 84 84 84 83 83 84 84 90 96 98 92 81 83 83 82 82 82 82
101 99 95 92 87 87 86 83 83 83 84 84 84 83 83 84 84 84 83 83 84 83 84 84 84 84 84 84 83 83 84 84 91 97 97 89 81 83 83 83 83 82 82
98 99 98 95 87 86 85 85 83 83 83 84 84 84 85 90 88 87 86 83 83 83 83 84 84 84 83 83 83 84 84 93 90 99 93 81 82 83 83 83 83 82 82
95 98 100 97 89 87 89 85 85 85 87 89 89 87 91 88 90 91 88 84 84 84 83 83 84 83 84 93 90 85 91 90 99 96 92 81 82 82 83 83 82 82 82
96 98 99 98 91 90 92 89 86 89 87 87 82 88 90 86 89 91 89 89 88 84 89 87 87 90 92 96 96 96 92 96 90 92 86 81 82 82 83 83 82 82 82
96 97 99 98 94 92 95 93 94 94 95 94 86 82 85 81 86 84 83 90 90 89 91 90 92 92 94 95 90 88 94 98 98 94 88 82 81 82 82 83 82 82 81
95 96 96 96 93 93 92 95 94 95 96 96 85 85 81 83 84 85 84 85 89 89 93 91 90 92 91 94 94 93 92 98 96 99 90 82 81 81 82 82 83 82 82
96 96 97 94 92 92 91 92 92 94 95 95 96 93 89 84 83 81 80 81 87 87 93 94 90 82 89 94 92 93 94 97 97 97 100 89 82 81 81 82 82 83 82
97 97 95 93 92 90 90 90 91 95 95 94 95 91 90 85 87 85 85 84 86 92 91 90 91 92 92 93 92 92 93 94 97 95 96 98 89 81 81 81 82 82 82
97 94 94 95 92 90 89 90 92 94 94 95 95 91 88 86 89 86 86 89 91 89 91 91 90 91 91 91 90 92 93 93 93 93 95 96 97 91 83 81 81 81 81
97 94 92 92 90 89 89 89 90 90 93 95 96 96 89 88 89 90 91 85 91 93 84 89 90 89 89 89 91 91 92 93 93 96 93 93 95 96 90 81 80 80 81
97 94 92 91 90 89 90 89 91 92 92 95 95 95 90 89 88 88 91 90 90 91 87 90 87 90 90 90 91 92 92 93 94 93 94 96 96 95 96 87 82 87 81
96 93 90 89 89 89 88 88 89 88 90 92 95 92 92 90 89 87 90 89 89 89 88 85 83 83 85 88 84 88 90 91 92 94 95 95 96 96 96 96 94 95 93
95 92 89 88 88 88 89 85 90 90 93 92 94 92 91 89 87 88 87 89 88 89 85 84 82 80 82 86 83 77 76 84 89 91 94 94 95 97 97 95 93 91 92
94 91 90 88 88 87 88 88 87 90 91 91 92 92 90 90 89 87 85 88 87 88 88 84 83 82 83 83 84 81 79 80 78 90 84 90 92 94 96 96 95 93 91
96 94 90 90 88 87 87 87 80 74 84 86 90 92 92 90 88 88 87 86 85 90 87 86 84 84 82 80 83 86 85 85 80 79 87 79 83 91 91 94 95 94 92
94 95 94 91 88 88 86 85 85 81 89 91 78 83 88 89 88 89 87 87 86 88 88 87 86 84 87 85 85 85 82 81 82 75 78 85 79 72 91 92 94 94 94
94 94 93 89 88 86 85 86 84 85 84 86 82 78 85 92 91 86 88 87 87 86 87 88 87 84 83 85 86 81 78 77 76 75 73 79 82 87 83 84 91 93 92
MSLP
1009.38 1010.96 1011.79 1011.81 1012.14 1012.55 1012.64 1013.02 1012.94 1013.17 1013.58 1013.93 1014.14 1014.35 1014.41 1014.60 1014.79 1014.99 1015.23 1015.68 1015.98 1016.15 1016.33 1016.56 1016.72 1016.82 1016.92 1016.96 1017.16 1017.36 1017.54 1017.75 1017.93 1018.09 1018.12 1018.28 1018.50 1018.59 1018.57 1018.49 1018.35 1018.65 1019.23
1009.48 1010.86 1011.95 1012.18 1012.16 1012.62 1013.01 1013.18 1013.02 1013.60 1014.05 1014.29 1014.56 1014.71 1014.76 1014.98 1015.16 1015.37 1015.70 1015.94 1016.24 1016.50 1016.73 1016.89 1017.06 1017.23 1017.32 1017.30 1017.50 1017.69 1017.86 1018.00 1018.22 1018.23 1018.26 1018.52 1018.84 1019.01 1019.00 1018.81 1018.58 1019.36 1019.58
1009.21 1010.73 1011.71 1012.21 1012.45 1012.76 1012.89 1013.19 1013.35 1013.79 1014.13 1014.69 1014.90 1015.04 1015.12 1015.37 1015.58 1015.76 1016.07 1016.31 1016.57 1016.75 1016.96 1017.18 1017.31 1017.47 1017.66 1017.67 1017.83 1017.99 1018.22 1018.26 1018.31 1018.31 1017.93 1017.70 1018.67 1019.19 1019.30 1019.32 1019.60 1019.78 1019.93
1009.11 1010.46 1011.48 1012.48 1012.68 1012.82 1013.35 1013.49 1013.79 1014.17 1014.50 1014.98 1015.12 1015.26 1015.59 1015.82 1015.91 1016.18 1016.36 1016.59 1016.82 1017.04 1017.13 1017.39 1017.51 1017.74 1017.87 1018.00 1018.15 1018.26 1018.49 1018.43 1018.27 1018.34 1017.77 1017.56 1018.43 1019.57 1019.67 1019.88 1020.02 1020.07 1020.17
1009.26 1009.97 1011.83 1012.68 1012.92 1013.13 1013.52 1013.89 1014.17 1014.41 1014.83 1015.22 1015.47 1015.64 1015.89 1016.22 1016.33 1016.49 1016.65 1016.85 1017.06 1017.29 1017.37 1017.53 1017.76 1017.88 1018.09 1018.22 1018.54 1018.52 1018.73 1018.50 1018.26 1018.04 1017.27 1017.84 1018.47 1019.82 1019.97 1020.02 1020.17 1020.25 1020.17
1008.83 1010.00 1012.53 1012.89 1013.19 1013.39 1013.79 1014.08 1014.36 1014.59 1015.03 1015.42 1015.60 1015.94 1016.16 1016.48 1016.60 1016.76 1016.97 1017.21 1017.30 1017.50 1017.67 1017.74 1017.95 1018.09 1018.31 1018.46 1018.73 1018.88 1018.77 1018.48 1018.33 1017.39 1017.82 1018.54 1018.65 1020.03 1020.08 1020.32 1020.24 1020.46 1020.61
1008.79 1010.68 1012.32 1013.22 1013.52 1013.60 1013.92 1014.32 1014.54 1014.86 1015.23 1015.58 1015.85 1016.14 1016.44 1016.67 1016.84 1017.00 1017.19 1017.43 1017.59 1017.70 1017.85 1017.94 1018.09 1018.35 1018.48 1018.69 1018.87 1019.05 1018.89 1018.65 1018.11 1017.26 1017.95 1018.76 1019.69 1020.14 1020.29 1020.37 1020.48 1020.67 1020.81
1008.55 1010.59 1012.22 1013.39 1013.81 1013.96 1014.21 1014.49 1014.84 1015.03 1015.40 1015.73 1016.05 1016.28 1016.60 1016.81 1017.01 1017.17 1017.35 1017.62 1017.73 1017.85 1018.00 1018.17 1018.30 1018.50 1018.76 1018.91 1019.04 1019.16 1018.97 1018.80 1017.81 1017.27 1017.86 1018.75 1019.96 1020.26 1020.49 1020.60 1020.79 1020.86 1020.94
1008.62 1010.15 1011.95 1013.07 1013.83 1014.29 1014.41 1014.57 1014.87 1015.19 1015.56 1015.91 1016.15 1016.38 1016.63 1016.87 1017.13 1017.35 1017.45 1017.63 1017.89 1017.93 1018.19 1018.27 1018.46 1018.62 1018.83 1019.05 1019.15 1019.32 1019.18 1018.68 1018.21 1017.53 1017.38 1018.63 1020.06 1020.38 1020.57 1020.72 1020.93 1021.01 1021.07
1008.81 1009.84 1011.25 1012.28 1013.58 1014.14 1014.58 1014.89 1015.23 1015.38 1015.61 1015.97 1016.28 1016.59 1016.69 1016.92 1017.16 1017.32 1017.61 1017.84 1017.92 1018.12 1018.21 1018.37 1018.63 1018.78 1018.94 1019.17 1019.20 1019.31 1018.99 1018.49 1017.95 1017.12 1017.50 1019.01 1019.89 1020.34 1020.53 1020.74 1020.86 1021.08 1021.16
1008.97 1009.44 1010.64 1011.65 1013.09 1013.81 1014.40 1014.79 1015.22 1015.46 1015.68 1016.14 1016.43 1016.59 1016.77 1016.37 1016.81 1017.06 1017.19 1017.66 1017.99 1018.19 1018.29 1018.42 1018.66 1018.91 1018.98 1019.22 1019.20 1019.04 1018.94 1018.03 1017.27 1016.50 1017.65 1019.13 1019.82 1020.28 1020.47 1020.65 1020.81 1020.96 1021.13
1008.85 1009.21 1009.90 1011.01 1012.86 1013.62 1013.77 1014.50 1014.97 1015.31 1015.57 1015.82 1015.94 1016.31 1016.00 1015.80 1015.92 1016.16 1016.82 1017.66 1018.03 1018.20 1018.35 1018.59 1018.75 1018.93 1019.00 1018.16 1018.55 1018.61 1018.32 1017.42 1016.48 1016.95 1018.07 1018.94 1019.74 1020.18 1020.36 1020.51 1020.67 1020.84 1021.00
1008.73 1009.19 1009.69 1010.49 1012.08 1013.02 1012.81 1014.07 1014.46 1014.57 1015.10 1015.41 1016.06 1015.99 1015.79 1016.29 1016.25 1016.34 1016.71 1017.22 1017.60 1018.19 1017.95 1018.30 1018.53 1018.30 1017.91 1016.86 1016.83 1017.21 1017.17 1016.68 1017.02 1017.15 1018.24 1018.63 1019.46 1019.94 1020.16 1020.30 1020.48 1020.69 1020.85
1008.52 1009.01 1009.69 1010.23 1011.20 1012.05 1012.01 1012.78 1013.10 1013.51 1013.55 1013.89 1015.30 1016.07 1016.18 1016.63 1016.56 1016.85 1016.91 1016.71 1016.77 1017.25 1016.90 1017.20 1017.13 1017.32 1017.17 1016.93 1017.09 1017.43 1017.10 1016.39 1016.23 1016.71 1017.83 1018.28 1018.95 1019.52 1019.82 1020.05 1020.22 1020.37 1020.59
1008.08 1008.78 1009.44 1010.12 1010.95 1011.50 1012.09 1012.26 1012.40 1012.81 1013.13 1013.19 1014.66 1015.56 1016.18 1016.22 1016.31 1016.77 1016.95 1016.76 1016.81 1016.56 1016.41 1016.72 1016.62 1017.06 1016.92 1016.93 1017.17 1017.15 1017.22 1016.43 1016.47 1016.35 1017.29 1017.78 1018.36 1018.98 1019.34 1019.52 1019.75 1019.94 1020.17
1007.60 1008.39 1009.14 1010.05 1011.03 1011.59 1012.06 1012.45 1012.81 1012.76 1012.98 1013.43 1013.38 1014.16 1015.27 1015.71 1016.04 1016.63 1016.96 1016.94 1016.58 1016.54 1016.11 1016.15 1016.68 1017.46 1017.39 1016.96 1017.40 1017.33 1017.10 1016.60 1016.56 1016.69 1016.24 1017.32 1017.76 1018.26 1018.77 1019.04 1019.27 1019.55 1019.80
1007.01 1007.97 1008.85 1010.01 1010.90 1011.65 1012.10 1012.54 1012.75 1012.51 1012.69 1013.10 1013.38 1014.10 1014.88 1015.33 1015.56 1015.94 1016.19 1016.45 1016.18 1015.89 1016.30 1016.59 1016.59 1016.78 1017.02 1016.97 1016.98 1017.20 1017.17 1016.96 1016.46 1016.76 1016.93 1016.47 1017.13 1017.68 1017.92 1018.50 1018.87 1019.20 1019.43
1006.48 1007.51 1008.61 1009.67 1010.61 1011.39 1011.91 1012.38 1012.43 1012.29 1012.80 1012.73 1013.26 1013.73 1014.63 1015.22 1015.09 1015.60 1015.61 1015.62 1015.44 1015.55 1016.27 1016.37 1016.71 1016.56 1016.80 1016.84 1016.85 1016.85 1016.86 1016.81 1016.74 1016.93 1016.83 1016.59 1016.17 1016.76 1017.65 1017.87 1018.22 1018.58 1018.94
1006.48 1007.48 1008.42 1009.34 1010.21 1011.12 1011.74 1012.14 1012.39 1012.48 1012.59 1012.47 1012.70 1012.92 1013.95 1014.77 1014.97 1015.04 1014.95 1015.03 1015.15 1015.28 1015.98 1016.08 1016.40 1016.73 1016.60 1016.69 1016.52 1016.67 1016.66 1016.50 1016.39 1016.34 1016.58 1016.62 1016.39 1016.28 1016.78 1017.47 1017.87 1018.09 1018.36
1006.57 1007.63 1008.66 1009.31 1009.86 1010.76 1011.40 1012.08 1012.30 1012.35 1012.56 1012.27 1012.35 1012.50 1013.20 1014.11 1014.58 1015.09 1014.79 1014.69 1015.06 1015.25 1015.48 1015.94 1016.24 1016.21 1016.22 1016.20 1016.34 1015.81 1016.12 1016.23 1016.13 1016.09 1016.09 1016.08 1015.93 1015.92 1016.02 1016.85 1017.33 1017.44 1017.42
1006.57 1007.65 1008.66 1009.38 1009.99 1010.69 1011.21 1011.54 1011.54 1011.66 1011.86 1012.13 1011.99 1012.47 1012.82 1013.52 1014.00 1014.35 1014.33 1014.56 1014.87 1014.94 1015.46 1016.27 1016.60 1016.60 1016.40 1015.97 1016.17 1015.95 1015.74 1015.72 1015.82 1015.63 1015.30 1015.35 1015.08 1015.09 1015.29 1015.56 1015.98 1016.11 1016.26
1006.50 1007.59 1008.53 1009.18 1009.96 1010.63 1010.85 1011.05 1011.03 1011.18 1011.24 1011.58 1011.79 1011.99 1012.66 1013.11 1013.89 1013.71 1014.12 1013.89 1014.42 1014.54 1015.33 1015.77 1016.24 1016.29 1016.26 1016.00 1016.14 1016.56 1016.06 1015.29 1014.99 1015.05 1014.82 1014.80 1014.63 1014.38 1014.27 1014.72 1015.21 1015.69 1015.96
1006.41 1007.49 1008.09 1008.89 1009.63 1010.10 1010.27 1010.73 1010.65 1010.70 1011.39 1010.93 1011.26 1011.76 1012.39 1013.04 1013.28 1013.44 1013.60 1013.72 1013.79 1014.17 1014.30 1015.03 1015.44 1015.63 1015.33 1015.68 1016.02 1015.94 1015.28 1014.58 1014.94 1014.20 1014.49 1014.49 1014.27 1014.30 1014.06 1014.02 1014.42 1014.83 1015.12
1005.95 1006.98 1007.57 1008.24 1009.00 1009.62 1010.06 1010.04 1010.54 1010.31 1010.22 1010.93 1010.63 1010.98 1011.08 1011.86 1012.81 1013.25 1012.96 1013.12 1013.43 1013.55 1013.60 1014.03 1014.48 1014.70 1015.19 1015.13 1015.52 1015.46 1015.31 1015.05 1015.05 1014.59 1014.39 1014.49 1014.36 1014.12 1014.05 1013.90 1013.74 1013.92 1014.20
1006.66 1006.77 1007.03 1007.45 1008.40 1008.92 1009.40 1009.89 1010.19 1010.12 1010.01 1010.01 1010.62 1010.85 1010.99 1010.34 1011.64 1012.26 1012.59 1012.59 1012.96 1013.15 1012.97 1013.37 1013.79 1014.31 1014.33 1014.55 1014.45 1014.68 1014.76 1015.17 1015.33 1015.48 1014.57 1013.81 1014.46 1014.91 1013.69 1013.52 1013.46 1013.53 1013.47
1006.59 1006.92 1007.34 1007.61 1007.72 1008.21 1008.69 1008.98 1009.63 1009.16 1009.58 1009.46 1009.80 1010.40 1009.90 1008.91 1010.00 1011.28 1011.80 1011.97 1012.33 1012.58 1012.59 1012.72 1013.09 1013.57 1013.91 1013.72 1014.00 1013.93 1014.55 1014.75 1014.81 1015.14 1015.15 1014.58 1013.98 1013.61 1013.52 1013.59 1013.08 1012.96 1013.16
Wind_Speed
19 19 16 17 20 18 16 15 17 18 18 18 17 18 18 18 18 19 19 17 15 15 14 16 16 15 15 16 14 15 15 15 15 15 16 16 14 10 8 9 15 15 14
22 20 13 14 19 17 16 15 18 16 17 17 16 16 17 16 17 18 16 16 14 13 14 15 15 14 14 15 14 13 14 14 13 14 18 15 14 11 10 9 19 14 14
22 19 15 14 17 17 14 14 16 17 16 17 16 16 16 16 16 16 15 14 13 13 13 13 14 13 12 13 13 12 12 11 10 12 16 14 12 11 12 16 14 14 13
20 18 18 13 17 17 15 14 15 16 17 16 15 15 15 14 14 14 14 13 12 11 12 11 12 12 11 11 11 11 10 7 6 9 11 12 13 11 11 12 13 12 13
19 19 19 16 17 17 15 14 14 16 15 15 15 15 15 13 13 13 12 12 12 10 10 10 10 11 10 10 9 11 8 5 7 9 10 10 11 10 11 12 13 9 10
19 22 18 17 17 18 17 15 13 15 15 14 14 14 13 13 12 13 11 10 10 10 9 9 9 10 9 9 9 9 7 7 9 9 7 10 12 12 8 10 13 12 12
21 21 17 15 16 16 16 15 14 14 13 14 13 14 13 11 11 12 11 11 9 9 8 7 9 8 9 9 8 7 4 7 11 10 6 14 12 10 7 9 10 11 11
22 20 18 15 14 14 16 15 14 15 14 14 14 13 13 11 10 10 10 9 8 8 7 7 8 8 8 9 8 5 5 9 10 7 7 12 12 8 6 11 8 8 8
19 19 17 15 14 13 14 15 14 14 14 13 12 11 12 11 9 8 8 8 7 7 7 7 8 8 8 9 7 4 5 10 11 7 7 11 12 7 6 10 7 6 7
16 20 17 16 13 11 10 12 13 14 13 13 12 12 11 10 10 9 7 7 7 7 7 8 8 8 8 8 7 5 10 13 12 7 6 10 13 9 7 9 8 6 4
14 17 18 17 11 14 12 11 11 12 12 11 10 10 9 10 10 12 12 13 9 9 8 9 8 8 9 8 7 8 12 8 10 2 10 17 12 8 7 11 8 7 5
18 16 16 17 14 11 11 11 11 8 7 9 9 11 10 4 7 8 14 12 10 9 9 8 8 8 10 10 8 11 8 8 3 8 9 17 12 8 6 10 9 8 7
18 14 14 17 18 14 11 10 5 8 9 8 8 8 7 3 2 4 6 7 8 9 8 9 9 8 12 10 11 9 6 11 0 7 11 17 13 10 9 8 10 9 9
18 17 16 14 16 16 10 12 11 10 9 9 11 9 5 3 5 5 3 6 5 7 9 9 8 10 11 10 6 4 3 7 4 7 12 17 15 13 12 11 10 11 10
19 18 17 15 11 10 8 8 7 9 8 9 9 13 7 7 7 6 6 4 6 5 6 6 3 4 6 7 6 5 12 7 3 4 7 18 17 14 14 14 13 13 12
19 19 17 16 13 12 10 7 6 7 8 7 9 11 10 8 7 7 6 5 6 5 7 8 8 4 9 7 8 10 9 8 7 7 6 10 18 17 15 15 15 14 14
18 19 18 17 17 14 12 10 8 8 8 9 6 8 11 7 11 8 8 6 9 9 5 5 5 6 6 7 9 10 9 10 8 8 8 8 12 17 18 16 15 14 14
19 19 18 16 18 17 14 11 9 8 9 8 8 8 10 9 9 9 8 10 8 4 8 7 8 8 8 8 7 7 9 9 11 10 9 9 5 6 14 18 18 16 14
17 17 17 17 20 18 14 12 11 9 9 9 10 10 14 13 12 8 9 5 5 8 6 8 8 8 7 7 8 8 8 8 9 10 11 11 10 8 6 15 18 17 16
16 16 16 14 15 15 12 9 10 9 10 10 10 10 14 12 13 12 10 8 7 9 5 6 5 6 8 8 9 7 8 9 9 9 10 11 13 10 10 11 9 12 20
15 15 14 14 12 12 11 12 11 12 11 10 11 12 11 12 15 13 12 11 9 11 8 8 8 9 8 6 4 6 7 10 11 11 11 11 12 13 12 9 6 7 8
13 14 14 14 12 12 11 8 9 9 11 11 11 10 13 14 13 13 13 11 13 10 9 10 10 9 8 6 6 3 5 7 9 13 12 11 13 11 12 11 10 10 9
13 13 14 14 14 14 14 10 8 7 9 10 10 11 13 14 14 15 15 12 10 11 12 13 12 13 10 8 10 7 6 6 2 6 7 10 11 10 11 9 9 11 11
8 13 11 12 14 13 14 12 13 8 12 8 8 11 12 16 14 15 14 15 12 12 12 11 10 10 10 9 6 10 11 8 5 5 2 2 4 9 10 10 9 10 11
3 3 3 12 14 13 15 16 14 15 12 10 6 8 13 12 16 16 16 14 14 12 12 12 10 11 11 11 10 8 8 7 9 7 9 8 1 4 9 10 11 9 10
5 4 2 2 7 13 13 17 18 15 14 12 12 11 9 12 13 16 17 15 14 14 14 12 12 12 12 10 11 7 6 5 7 7 8 10 8 9 7 9 7 8 7
Wind_Direction
122 133 138 136 147 149 135 131 118 117 119 120 121 120 120 117 115 112 112 114 107 105 101 95 97 99 96 93 94 95 97 98 103 101 103 103 104 104 123 148 153 103 101
129 136 146 136 137 140 133 130 123 121 126 124 129 126 120 121 118 115 113 115 110 107 104 100 98 95 95 97 97 99 106 104 110 121 114 102 101 99 74 102 78 100 106
134 129 145 131 138 133 136 129 121 130 129 132 136 129 122 118 123 120 116 116 115 115 111 107 100 95 96 98 100 102 104 112 137 149 167 117 102 90 85 83 97 110 103
129 148 138 138 142 134 139 134 134 137 135 136 136 128 126 119 120 123 123 119 119 118 116 114 107 99 97 97 106 101 119 138 186 190 210 118 107 99 98 103 108 112 107
142 135 122 138 138 139 141 142 144 138 137 136 137 132 130 128 124 124 126 124 121 120 117 117 113 109 105 102 106 102 122 177 228 244 76 96 119 111 124 128 127 109 104
147 123 134 144 141 140 142 143 147 139 143 144 139 139 141 139 133 124 122 127 125 120 114 114 116 115 116 113 118 117 140 226 255 99 94 67 90 123 134 96 97 98 100
133 124 142 147 149 147 141 148 145 146 147 148 146 150 152 149 145 141 137 138 138 126 125 120 118 124 125 126 122 128 187 242 257 129 145 131 108 116 130 108 106 116 114
128 140 138 147 150 150 147 147 149 147 150 151 158 159 160 162 155 153 154 145 143 140 144 140 129 129 130 131 129 146 235 285 289 110 113 94 114 129 146 120 118 120 122
134 143 148 160 155 155 155 152 152 152 156 162 162 164 169 168 166 168 163 158 159 144 136 152 144 140 141 140 134 151 260 269 282 109 160 124 127 144 141 124 127 132 130
154 145 158 157 160 159 167 161 156 162 163 166 168 167 172 178 182 191 165 177 177 148 152 152 155 152 151 157 157 192 252 267 264 134 119 107 136 161 176 159 150 143 163
168 153 160 156 162 160 174 169 167 170 170 172 171 176 170 191 182 163 200 151 167 171 158 157 162 165 153 166 176 218 251 248 269 173 98 131 138 168 202 163 159 159 171
174 172 170 153 155 175 181 151 170 177 177 195 190 171 213 202 172 210 141 158 166 175 161 170 177 175 203 179 182 222 239 260 132 120 113 131 147 179 190 168 171 177 181
177 178 179 155 163 170 196 166 195 182 176 184 181 213 224 153 144 150 146 161 176 184 184 184 179 207 210 238 166 198 184 234 212 76 130 136 157 186 203 206 192 192 195
183 185 180 180 155 176 196 174 181 203 194 182 170 187 183 175 188 168 226 196 196 173 217 197 184 218 196 251 121 312 261 245 210 135 145 151 164 190 203 212 207 204 203
183 188 182 176 167 184 179 183 212 198 201 181 157 171 176 189 184 180 213 247 203 243 181 201 166 219 233 208 246 211 233 235 251 280 140 162 170 188 203 210 214 210 210
181 186 179 176 169 188 188 185 213 202 166 232 190 168 205 168 179 187 200 221 222 221 213 199 155 163 241 213 211 240 250 247 219 247 256 164 174 183 198 210 211 214 214
177 181 177 181 176 188 187 193 199 186 218 198 200 160 187 206 187 185 196 215 227 181 258 248 231 208 219 245 225 206 243 251 255 220 253 268 179 188 187 198 207 214 218
176 178 176 183 181 186 184 189 200 214 205 192 199 166 178 207 203 188 215 200 208 191 186 225 199 221 212 223 234 230 216 244 225 255 254 260 249 178 188 194 199 204 219
181 175 179 181 182 188 184 194 205 207 211 212 198 201 173 197 208 220 234 203 186 221 186 198 206 223 227 249 231 219 242 244 234 237 235 249 255 266 191 182 198 201 212
183 180 187 184 183 184 185 196 196 210 213 221 211 214 165 191 208 197 216 234 189 227 212 217 233 235 227 209 240 242 228 237 241 246 250 239 241 229 248 170 183 208 209
181 181 188 198 188 183 192 196 201 208 206 218 221 210 192 200 202 195 222 190 217 221 209 208 222 237 239 261 296 253 252 225 242 253 239 237 249 226 229 224 242 265 224
175 182 192 200 199 197 201 214 214 211 214 213 222 202 211 197 207 204 219 209 199 221 202 206 213 228 220 222 234 239 251 252 223 230 237 249 243 247 233 205 221 221 249
176 193 203 201 207 201 219 198 226 224 241 210 216 214 201 218 210 212 200 229 208 213 205 204 209 219 230 209 217 227 249 241 11 241 227 254 237 242 253 249 230 219 219
156 191 210 202 212 205 209 206 211 198 224 222 208 224 211 198 218 220 220 203 230 206 234 199 215 221 225 234 211 225 253 286 268 291 230 172 337 243 253 268 262 229 225
129 160 221 198 200 215 202 221 211 231 227 212 227 245 225 191 209 224 216 220 212 228 215 227 208 211 218 239 219 233 231 244 253 250 264 255 126 248 262 212 240 256 246
109 108 71 186 231 195 217 214 233 238 215 230 199 216 235 203 195 216 229 212 218 219 226 214 217 215 223 234 240 240 206 213 222 225 244 269 257 229 215 252 225 220 236